Lexington Weather

Lexington, Massachusetts, USA

28°F
12/12/2019 4:24pm 
  • Lexington Conditions: Partly cloudy
  • Temperature: 27.7°F / -2.4°CColder 1.4°F than last hour.
  • Dew Point: 19.8°FDecreased 0.1°Fsince last hour.
  • Relative Humidity: 72%Increased 4.0% since last hour.
  • Wind: Wind from WSW WSW Calm, 10-min avg: 1 mph, gust: 2 mph
  • Barometer: 30.66 in Steady
  • Visibility: 10 miles
  • Snow Today: 0.0 in
  •   

Regional Weather Roundup
for Boston / Norton, MA

        
000
ASUS41 KBOX 120610
RWRBOX

REGIONAL WEATHER ROUNDUP
NATIONAL WEATHER SERVICE BOSTON/NORTON MA
100 AM EST THU DEC 12 2019

NOTE:  "FAIR" INDICATES FEW OR NO CLOUDS BELOW 12,000 FEET WITH NO 
SIGNIFICANT WEATHER AND/OR OBSTRUCTIONS TO VISIBILITY.

MAZALL-120700-
EASTERN MASSACHUSETTS
  
CITY           SKY/WX    TMP DP  RH WIND       PRES   REMARKS
BOSTON         FAIR      32  16  51 W18G25    30.38R WCI  20          
6HR MIN TEMP:  30; 6HR MAX TEMP:  34;                                

BEVERLY        FAIR      28  16  60 W12G18    30.36R WCI  18          
LAWRENCE       FAIR      28  14  55 W20G30    30.38R WCI  15          
BEDFORD        FAIR      28  15  58 W15       30.37R WCI  16          
BLUE HILL        N/A     23  18  81 W20       30.33R WCI   8          
NORWOOD        FAIR      27  18  69 W8        30.39R WCI  19          
MARSHFIELD     FAIR      27  25  93 W3        30.40R                  
PLYMOUTH       FAIR      24  21  88 W8        30.40R WCI  15          
TAUNTON        FAIR      27  20  75 W3        30.41R                  
NEW BEDFORD    FAIR      28  21  75 W8        30.41R WCI  20          
$$

MAZALL-120700-
CAPE COD AND THE ISLANDS
  
CITY           SKY/WX    TMP DP  RH WIND       PRES   REMARKS
FALMOUTH       CLEAR     27  23  86 NW9       30.40R WCI  17          
HYANNIS        FAIR      30  22  72 W8        30.38R WCI  22          
CHATHAM        FAIR      30  25  81 NW7       30.39R WCI  23          
PROVINCETOWN   FAIR      32  23  69 NW18G28   30.39R WCI  20          
NANTUCKET      FAIR      34  21  59 NW21G28   30.39R WCI  22          
MARTHAS VNYRD  FAIR      32  23  69 NW10G20   30.41R WCI  24          
$$
 
MAZALL-120700-
CENTRAL AND WESTERN MASSACHUSETTS
  
CITY           SKY/WX    TMP DP  RH WIND       PRES   REMARKS
WORCESTER      FAIR      22  12  65 W13       30.37R WCI  10          
6HR MIN TEMP:  22; 6HR MAX TEMP:  25;                                

FITCHBURG      FAIR      26  12  55 W13G22    30.41R WCI  15          
ORANGE         CLOUDY    27   9  46 W12G21    30.42R WCI  17          
SPRINGFIELD    CLEAR     27   7  43 NW16G29   30.45R WCI  14          
WESTFIELD      FAIR      25   9  50 NW7       30.46R WCI  17          
NORTH ADAMS    CLOUDY    24   9  52 W17G25    30.43R WCI  11          
PITTSFIELD     FAIR      21   7  54 W17G30    30.40R WCI   7          
$$
 
RIZALL-120700-
RHODE ISLAND
  
CITY           SKY/WX    TMP DP  RH WIND       PRES   REMARKS
PROVIDENCE     FAIR      29  20  69 NW10      30.43R WCI  20          
6HR MIN TEMP:  24; 6HR MAX TEMP:  29;                                

NEWPORT        FAIR      30  21  69 NW9       30.42R WCI  22          
BLOCK ISLAND   FAIR      30  20  66 NW15G21   30.44R WCI  19          
SMITHFIELD     FAIR      25  18  74 NW12G17   30.40R WCI  14          
WESTERLY       FAIR      31  17  56 VRB3      30.45R                  
$$
 
CTZALL-120700-
CONNECTICUT
  
CITY           SKY/WX    TMP DP  RH WIND       PRES   REMARKS
BRADLEY INTL   FAIR      26  10  50 W14G22    30.47R WCI  14          
6HR MIN TEMP:  26; 6HR MAX TEMP:  30;                                

HARTFORD       FAIR      29  14  53 NW8       30.50R WCI  21          
BRIDGEPORT     FAIR      31  15  52 NW20G32   30.48R WCI  19          
DANBURY        FAIR      25  15  66 VRB5      30.49R WCI  19          
GROTON         FAIR      30  17  58 NW8       30.45R WCI  22          
NEW HAVEN      FAIR      34  16  47 NW15G28   30.46R WCI  24          
CHESTER        FAIR      28  14  54 NW10G18   30.44R WCI  19          
MERIDEN        FAIR      28  15  58 VRB7      30.49R WCI  21          
WILLIMANTIC    FAIR      27  16  63 NW17G26   30.46R WCI  14          
OXFORD         FAIR      24  16  71 NW6       30.46R WCI  17          
$$

MEZ002-015-021-024-NHZ003-005-008-011-012-014-VTZ005-008-120700-
NORTHERN NEW ENGLAND
  
CITY           SKY/WX    TMP DP  RH WIND       PRES   REMARKS
PORTLAND ME    FAIR      28  16  60 W5        30.32R WCI  23          
6HR MIN TEMP:  26; 6HR MAX TEMP:  29;                                

BANGOR ME      FAIR      23  15  71 W6        30.23R WCI  16          
CONCORD NH     FAIR      26  15  63 NW9       30.37R WCI  17          
MANCHESTER NH  FAIR      29  13  51 W16G32    30.37R WCI  17          
NASHUA NH      CLOUDY    27  15  61 W8        30.40R WCI  19          
PORTSMOUTH NH  PTCLDY    28  15  60 W13       30.35R WCI  17          
JAFFREY NH     FAIR      23  10  57 VRB7      30.35R WCI  15          
KEENE NH       FAIR      26  12  55 NW9       30.41R WCI  17          
BURLINGTON VT  CLOUDY    23   6  48 W15G21    30.42R WCI  10          
MT. WASHINGTON BLWGSNOW  -4  -4 100 W74G79      N/A  VSB 0   WCI -41  
$$

NYZ052-076-120700-
EASTERN NEW YORK
  
CITY           SKY/WX    TMP DP  RH WIND       PRES   REMARKS
ALBANY         FAIR      25  10  53 NW13      30.51R WCI  14          
6HR MIN TEMP:  25; 6HR MAX TEMP:  33; 6HR PCP: TRACE;                

NEW YORK CITY  FAIR      33  13  43 NW18G30   30.52R WCI  22          
6HR MIN TEMP:  33; 6HR MAX TEMP:  37;                                

$$
 
ANZALL-120700-
MARINE OBSERVATIONS
  
STATION/POSITION TIME  TEMP    WIND        PRES    VSBY  WAVE
                       AIR SEA DIR/SP/G                  HT/PER
                 (UTC) (F)     (DEG/KT/KT) (MB)    (MI)  (FT/S)
BOSTON BUOY      0550   34 47  280/ 25/ 31 1027.3R         4/ 4
BUZZARDS BAY     0500   34     300/ 25/ 27 1029.2R
NANTUCKET SOUND  0540      43              1029.0R
MASS BAY-STELLWA 0504   34 46  310/ 23/ 29 1025.3R  1 7/8  3/ 4
ISLE OF SHOALS   0500   32     270/ 24/ 26 1025.4R
S OF BLOCK IS    0600      53                N/A           7/ 6
$$

......................KEY.........................
  SKY/WX - SKY CONDITION/PRESENT WEATHER
  TMP    - TEMPERATURE IN FAHRENHEIT
  DWPT   - DEWPOINT IN FAHRENHEIT
  RH     - RELATIVE HUMIDITY IN PERCENT
  WIND   - DIRECTION AND SPEED IN MPH
  PRES   - MEAN SEA LEVEL PRESSURE IN INCHES OF HG
  WCI    - WIND CHILL INDEX
  VSB    - VISIBILITY IN MILES
  HX     - HEAT INDEX
  TC     - TEMPERATURE IN CELSIUS
  VRB    - VARIABLE WIND DIRECTION
  N/A    - NOT AVAILABLE
  
      

Other recent Regional Weather Roundups

Thu Dec 12, 4:01pm

Thu Dec 12, 3:10pm

Thu Dec 12, 3:00pm

Thu Dec 12, 2:10pm

Thu Dec 12, 2:01pm

Thu Dec 12, 1:10pm

Thu Dec 12, 1:00pm

Thu Dec 12, 12:10pm

Thu Dec 12, 12:00pm

Thu Dec 12, 11:10am

Thu Dec 12, 11:00am

Thu Dec 12, 10:10am

Thu Dec 12, 8:10am

Thu Dec 12, 8:00am

Thu Dec 12, 7:10am

Thu Dec 12, 7:00am

Thu Dec 12, 6:10am

Thu Dec 12, 6:00am

Thu Dec 12, 5:10am

Thu Dec 12, 5:00am

Thu Dec 12, 4:10am

Thu Dec 12, 4:00am

Thu Dec 12, 3:10am

Thu Dec 12, 3:00am

Thu Dec 12, 2:10am

Thu Dec 12, 2:00am

Thu Dec 12, 1:00am

Thu Dec 12, 12:10am

Thu Dec 12, 12:00am

Wed Dec 11, 11:10pm

Wed Dec 11, 11:00pm

Wed Dec 11, 10:10pm

Wed Dec 11, 10:00pm

Wed Dec 11, 9:10pm

Wed Dec 11, 9:00pm

Wed Dec 11, 8:10pm

Wed Dec 11, 8:00pm

Wed Dec 11, 7:10pm

Wed Dec 11, 7:00pm

Wed Dec 11, 6:10pm

Wed Dec 11, 6:00pm

Wed Dec 11, 5:10pm

Wed Dec 11, 5:01pm

Wed Dec 11, 4:10pm

Wed Dec 11, 4:00pm

Wed Dec 11, 3:10pm

Wed Dec 11, 3:01pm

Wed Dec 11, 2:10pm

Wed Dec 11, 2:00pm

Wed Dec 11, 1:10pm

Wed Dec 11, 1:00pm

Wed Dec 11, 12:10pm

Wed Dec 11, 12:00pm

Wed Dec 11, 11:10am

Wed Dec 11, 11:00am

Wed Dec 11, 10:10am

Wed Dec 11, 10:00am

Wed Dec 11, 9:10am

Wed Dec 11, 9:00am

Wed Dec 11, 8:10am

Wed Dec 11, 8:00am

Wed Dec 11, 7:10am

Wed Dec 11, 7:00am

Wed Dec 11, 6:10am

Wed Dec 11, 6:00am

Wed Dec 11, 5:10am

Wed Dec 11, 5:00am

Wed Dec 11, 4:10am

Wed Dec 11, 4:00am

Wed Dec 11, 3:10am

Wed Dec 11, 3:01am

Wed Dec 11, 2:10am

Wed Dec 11, 2:01am

Wed Dec 11, 1:10am

Wed Dec 11, 1:00am

Wed Dec 11, 12:10am

Wed Dec 11, 12:00am

Tue Dec 10, 11:10pm

Tue Dec 10, 11:00pm

Tue Dec 10, 10:10pm

Tue Dec 10, 10:00pm

Tue Dec 10, 9:10pm

Tue Dec 10, 9:01pm

Tue Dec 10, 8:10pm

Tue Dec 10, 8:00pm

Tue Dec 10, 7:10pm

Tue Dec 10, 7:01pm

Tue Dec 10, 6:10pm

Tue Dec 10, 6:01pm

Tue Dec 10, 5:10pm

Tue Dec 10, 5:00pm

Tue Dec 10, 4:10pm

Tue Dec 10, 4:01pm

Tue Dec 10, 3:10pm

Tue Dec 10, 3:01pm

Tue Dec 10, 2:10pm

Tue Dec 10, 2:01pm

Tue Dec 10, 1:10pm

Tue Dec 10, 1:00pm

Tue Dec 10, 12:10pm

Tue Dec 10, 12:00pm

Tue Dec 10, 11:10am

Tue Dec 10, 11:00am

Tue Dec 10, 10:10am

Tue Dec 10, 10:00am

Tue Dec 10, 9:10am

Tue Dec 10, 9:01am

Tue Dec 10, 8:10am

Tue Dec 10, 8:00am

Tue Dec 10, 7:10am

Tue Dec 10, 7:00am

Tue Dec 10, 6:10am

Tue Dec 10, 6:00am

Tue Dec 10, 5:10am

Tue Dec 10, 5:00am

Tue Dec 10, 4:10am

Tue Dec 10, 4:00am

Tue Dec 10, 3:10am

Tue Dec 10, 3:00am

Tue Dec 10, 2:10am

Tue Dec 10, 2:01am

Tue Dec 10, 1:10am

Tue Dec 10, 1:00am

Tue Dec 10, 12:10am

Tue Dec 10, 12:01am

Mon Dec 9, 11:10pm

Mon Dec 9, 11:01pm

Mon Dec 9, 10:10pm

Mon Dec 9, 10:00pm

Mon Dec 9, 9:10pm

Mon Dec 9, 9:01pm

Mon Dec 9, 8:10pm

Mon Dec 9, 8:01pm

Mon Dec 9, 7:10pm

Mon Dec 9, 7:00pm

Mon Dec 9, 6:10pm

Mon Dec 9, 6:00pm

Mon Dec 9, 5:10pm

Mon Dec 9, 5:01pm

Mon Dec 9, 4:10pm

Meta data:

ID: 94bb58b0-1826-4e04-8439-dbd614c91564
Link: https://api.weather.gov/products/94bb58b0-1826-4e04-8439-dbd614c91564